Zurück zum Katalog

KUIPER-00589

AktivKommunikationLEO
NORAD 69767·PAYLOAD·🇺🇸 United States

Gestartet Jul 2, 2026 von Cape Canaveral Space Force Station

Loading…

Nächste Überflüge (nächste 24 Stunden)

TLE

AktuellSource: CelesTrak SupGP

Epoche: Sep 14, 2026, 22:03 UTC

1 69767C 26151E   26257.91899306  .00001190  00000+0  16880-3 0  2570
2 69767  51.8993 259.3016 0002734  49.6007 149.4660 14.76523553    12

Verfolge KUIPER-00589 in Echtzeit mit AllMySat

Download on the App Store